SCP
0 0 0 -0 -0 -0 -0 -0 -0 -0 -0 -0 -0 -0 -0 -0 -0 -0 -0 -0 -0 -0 -0 -0 0 0 0
0 0 0 -0 -0 -0 -0 -0 -0 -0 -0 -0 -0 -0 -0 -0 -0 -0 -0 -0 -0 -0 0 0 0 0 0
0 0 -0 -0 -0 -0 -0 -0 -0 -0 0 0 0 -0 -0 -0 -0 -0 -0 0 0 0 0 0 0 0 0
0 0 0 0 0 -0 -0 -0 -0 0 0 0 0 0 0 -0 -0 -0 0 0 0 0 0 0 0 0 0
0 0 0 0 0 0 0 0 0 0 0 0 0 0 0 0 0 0 0 0 0 0 0 0 0 0 0
0 0 0 0 0 0 0 0 0 0 0 0 0 0 0 0 0 0 0 0 0 0 0 0 0 0 0
0 0 0 0 0 0 0 0 0 0 0 0 0 0 0 0 0 0 0 0 0 0 0 0 0 0 0
0 0 0 0 0 0 0 0 0 0 0 0 0 0 0 0 0 0 0 0 0 0 0 0 0 0 0
0 0 0 0 0 0 0 0 0 0 0 0 0 0 0 0 0 0 0 0 0 0 0 0 0 0 0
0 0 0 0 0 0 0 0 0 0 0 0 0 0 0 0 0 0 0 0 0 0 0 0 0 0 0
0 0 0 0 0 0 0 0 0 0 0 0 0 0 0 0 0 0 0 0 0 0 0 0 0 0 0
0 0 0 0 0 0 0 0 0 0 0 0 0 0 0 0 0 0 0 0 0 0 0 0 0 0 0
0 0 0 0 0 0 0 0 0 0 0 0 0 0 0 0 0 0 0 0 0 0 0 0 0 0 0
0 0 0 0 0 0 0 0 0 0 0 0 0 0 0 0 0 0 0 0 0 0 0 0 0 0 0
0 0 0 0 0 0 0 0 0 0 0 0 0 0 0 0 0 0 0 0 0 0 0 0 0 0 0
0 0 0 0 0 0 0 0 0 0 0 0 0 0 0 0 0 0 0 0 0 0 0 0 0 0 0
Wind_Speed_500mb
26 24 20 19 21 20 18 13 21 22 23 24 25 25 24 24 22 20 20 18 18 19 20 21 22 21 21
27 25 25 26 26 21 19 18 20 20 20 22 22 22 21 20 18 17 15 14 14 14 15 18 19 20 21
29 27 26 27 28 21 17 22 19 20 20 21 20 21 20 17 16 14 11 11 12 12 13 14 17 18 17
30 30 31 28 22 16 14 22 25 23 23 23 22 20 18 17 13 9 7 8 8 8 9 11 13 15 14
32 30 29 31 30 27 27 27 29 25 22 21 19 18 16 13 9 4 0 3 4 4 5 6 9 11 13
31 29 28 29 28 27 27 25 27 26 24 20 18 15 14 12 9 6 5 4 3 3 4 5 7 12 14
34 32 30 28 27 27 28 27 28 26 22 20 18 15 14 13 11 9 8 8 7 6 5 6 7 10 14
37 34 30 29 29 28 28 27 26 25 24 21 18 17 16 15 12 11 11 12 12 11 10 9 8 9 11
41 38 36 33 33 31 30 30 28 26 23 23 21 19 18 17 15 14 14 15 15 15 14 14 12 9 15
46 43 40 39 36 34 34 34 32 30 29 27 24 22 21 20 18 17 17 18 19 19 20 20 18 18 19
47 46 43 41 41 38 39 39 36 33 33 31 28 27 28 26 23 22 21 21 22 23 25 27 27 25 28
49 48 47 47 48 47 45 43 40 39 37 36 34 34 33 32 30 27 26 25 25 27 30 32 33 33 35
62 58 58 61 56 53 52 48 46 45 44 42 40 39 39 38 33 32 33 33 32 31 33 38 39 40 43
70 67 65 59 60 56 51 52 51 51 49 49 48 45 44 43 42 41 41 39 38 38 39 39 44 46 50
75 74 70 68 67 63 65 61 58 56 55 54 52 51 49 49 50 48 47 46 46 44 46 42 21 32 39
80 82 80 81 78 71 67 62 60 59 58 57 57 56 55 55 56 54 52 53 52 55 54 55 57 61 52
Wind_Direction_500mb
190 195 190 181 175 189 189 162 151 150 143 134 131 130 124 116 113 109 98 88 80 76 72 71 63 60 57
198 199 183 180 185 187 183 176 156 144 140 136 136 130 125 128 119 105 98 88 80 78 74 67 58 52 53
193 191 195 192 178 196 199 178 156 151 145 141 140 141 147 141 133 123 108 85 71 69 64 59 53 48 55
193 191 196 199 202 192 193 176 174 170 163 156 158 156 157 157 149 135 100 70 63 63 59 49 42 36 35
197 197 204 208 207 206 192 180 181 180 177 173 169 168 169 165 160 151 49 20 27 44 46 39 24 16 17
202 203 208 214 208 203 198 189 184 184 186 182 180 184 187 186 192 222 258 277 312 329 345 353 357 0 4
208 203 205 206 207 203 199 198 194 192 192 190 191 196 202 205 216 238 257 269 275 282 287 302 332 355 360
215 213 209 206 205 207 203 200 202 198 198 199 200 207 211 219 232 248 260 266 274 282 287 293 309 331 340
220 218 215 209 207 208 205 206 204 204 205 205 208 216 221 230 244 254 263 267 272 281 283 278 293 302 307
222 222 220 215 213 212 212 213 211 210 212 213 213 216 225 233 241 250 258 267 271 276 276 272 272 271 293
223 224 223 222 219 215 216 218 218 218 219 221 220 222 229 235 241 247 254 262 267 271 271 268 273 272 275
229 228 226 225 223 220 220 222 223 223 226 226 225 227 234 240 242 249 257 262 266 268 269 269 275 275 277
229 225 227 227 225 223 222 222 225 228 230 233 233 233 237 243 250 253 255 258 263 266 267 270 275 281 279
232 232 233 235 233 233 232 230 229 231 232 235 238 239 241 246 249 251 255 258 262 262 262 271 275 282 281
232 233 235 239 239 237 235 233 232 234 236 239 241 243 245 248 252 255 257 259 263 264 264 258 255 273 289
231 234 235 237 238 236 237 237 237 238 241 243 246 247 249 250 253 257 259 261 261 262 262 263 266 270 270
Wind_Speed_850mb
26 24 20 19 21 20 18 13 21 22 23 24 25 25 24 24 22 20 20 18 18 19 20 21 22 21 21
27 25 25 26 26 21 19 18 20 20 20 22 22 22 21 20 18 17 15 14 14 14 15 18 19 20 21
29 27 26 27 28 21 17 22 19 20 20 21 20 21 20 17 16 14 11 11 12 12 13 14 17 18 17
30 30 31 28 22 16 14 22 25 23 23 23 22 20 18 17 13 9 7 8 8 8 9 11 13 15 14
32 30 29 31 30 27 27 27 29 25 22 21 19 18 16 13 9 4 0 3 4 4 5 6 9 11 13
31 29 28 29 28 27 27 25 27 26 24 20 18 15 14 12 9 6 5 4 3 3 4 5 7 12 14
34 32 30 28 27 27 28 27 28 26 22 20 18 15 14 13 11 9 8 8 7 6 5 6 7 10 14
37 34 30 29 29 28 28 27 26 25 24 21 18 17 16 15 12 11 11 12 12 11 10 9 8 9 11
41 38 36 33 33 31 30 30 28 26 23 23 21 19 18 17 15 14 14 15 15 15 14 14 12 9 15
46 43 40 39 36 34 34 34 32 30 29 27 24 22 21 20 18 17 17 18 19 19 20 20 18 18 19
47 46 43 41 41 38 39 39 36 33 33 31 28 27 28 26 23 22 21 21 22 23 25 27 27 25 28
49 48 47 47 48 47 45 43 40 39 37 36 34 34 33 32 30 27 26 25 25 27 30 32 33 33 35
62 58 58 61 56 53 52 48 46 45 44 42 40 39 39 38 33 32 33 33 32 31 33 38 39 40 43
70 67 65 59 60 56 51 52 51 51 49 49 48 45 44 43 42 41 41 39 38 38 39 39 44 46 50
75 74 70 68 67 63 65 61 58 56 55 54 52 51 49 49 50 48 47 46 46 44 46 42 21 32 39
80 82 80 81 78 71 67 62 60 59 58 57 57 56 55 55 56 54 52 53 52 55 54 55 57 61 52
Wind_Direction_850mb
190 195 190 181 175 189 189 162 151 150 143 134 131 130 124 116 113 109 98 88 80 76 72 71 63 60 57
198 199 183 180 185 187 183 176 156 144 140 136 136 130 125 128 119 105 98 88 80 78 74 67 58 52 53
193 191 195 192 178 196 199 178 156 151 145 141 140 141 147 141 133 123 108 85 71 69 64 59 53 48 55
193 191 196 199 202 192 193 176 174 170 163 156 158 156 157 157 149 135 100 70 63 63 59 49 42 36 35
197 197 204 208 207 206 192 180 181 180 177 173 169 168 169 165 160 151 49 20 27 44 46 39 24 16 17
202 203 208 214 208 203 198 189 184 184 186 182 180 184 187 186 192 222 258 277 312 329 345 353 357 0 4
208 203 205 206 207 203 199 198 194 192 192 190 191 196 202 205 216 238 257 269 275 282 287 302 332 355 360
215 213 209 206 205 207 203 200 202 198 198 199 200 207 211 219 232 248 260 266 274 282 287 293 309 331 340
220 218 215 209 207 208 205 206 204 204 205 205 208 216 221 230 244 254 263 267 272 281 283 278 293 302 307
222 222 220 215 213 212 212 213 211 210 212 213 213 216 225 233 241 250 258 267 271 276 276 272 272 271 293
223 224 223 222 219 215 216 218 218 218 219 221 220 222 229 235 241 247 254 262 267 271 271 268 273 272 275
229 228 226 225 223 220 220 222 223 223 226 226 225 227 234 240 242 249 257 262 266 268 269 269 275 275 277
229 225 227 227 225 223 222 222 225 228 230 233 233 233 237 243 250 253 255 258 263 266 267 270 275 281 279
232 232 233 235 233 233 232 230 229 231 232 235 238 239 241 246 249 251 255 258 262 262 262 271 275 282 281
232 233 235 239 239 237 235 233 232 234 236 239 241 243 245 248 252 255 257 259 263 264 264 258 255 273 289
231 234 235 237 238 236 237 237 237 238 241 243 246 247 249 250 253 257 259 261 261 262 262 263 266 270 270